SCP
0 0 0 1 1 1 1 1 1 1 1 0 0 0 0 0 0 0 0 0 0 0 0 0 0 0 0 0 0 0 0 0 0 0 0 0 0 0 0 0 0 0 0
0 0 0 1 1 1 1 1 1 1 1 1 0 0 0 0 0 0 0 0 0 0 0 0 0 0 0 0 0 0 0 0 0 0 0 0 0 0 0 0 0 0 0
0 0 0 1 1 1 1 1 1 1 1 1 0 0 0 0 0 0 0 0 0 0 0 0 0 0 0 0 0 0 0 0 0 0 0 0 0 0 0 0 0 0 0
0 0 1 1 1 1 1 1 1 1 1 1 1 0 0 0 0 0 0 0 0 0 0 0 0 0 0 0 0 0 0 0 0 0 0 0 0 0 0 0 0 0 0
0 0 1 1 1 1 1 1 1 1 1 1 1 0 0 0 0 0 0 0 0 0 0 0 0 0 0 0 0 0 0 0 0 0 0 0 0 0 0 0 0 0 0
0 0 0 1 1 1 1 1 1 1 1 1 1 0 0 0 0 0 0 0 0 0 0 0 0 0 0 0 0 0 0 0 0 0 0 0 0 0 0 0 0 0 0
0 0 0 1 1 1 1 1 1 1 1 1 1 0 0 0 0 0 0 0 0 0 0 0 0 0 0 0 0 0 0 0 0 0 0 0 0 0 0 0 0 0 0
0 0 0 1 1 1 1 1 1 1 1 1 1 1 0 0 0 0 0 0 0 0 0 0 0 0 0 0 0 0 0 0 1 0 0 0 0 0 0 0 0 0 0
0 0 0 1 1 1 1 1 1 1 1 1 1 1 1 0 0 0 0 0 0 0 0 0 0 0 0 0 0 0 0 0 1 1 1 1 0 0 1 1 1 1 0
0 0 1 1 1 1 1 1 1 1 1 1 1 1 0 0 0 0 0 0 0 0 0 0 1 1 0 0 1 1 0 0 0 0 0 0 1 1 1 1 1 1 1
0 0 1 1 1 1 1 1 1 1 1 1 1 1 0 0 0 0 0 0 0 0 0 1 1 1 0 0 1 0 0 0 0 0 0 0 0 1 1 1 1 1 1
0 1 1 1 1 1 1 1 1 1 1 1 1 1 1 0 0 0 0 0 0 0 0 1 1 0 0 0 0 0 0 0 0 0 0 0 0 0 1 1 1 1 1
1 1 1 1 1 1 1 1 1 1 1 1 1 1 1 1 1 1 0 0 0 0 0 0 0 0 0 0 0 0 0 0 0 0 0 0 0 0 1 1 1 1 0
0 1 1 1 1 1 1 1 1 1 1 1 1 1 1 1 1 1 1 0 0 0 0 0 0 0 0 0 0 0 0 0 0 0 0 0 0 0 0 0 0 0 0
0 0 1 1 1 1 1 1 1 1 1 1 1 1 1 1 1 1 1 1 0 0 0 0 0 0 0 0 0 0 0 0 0 0 0 0 0 0 0 0 0 0 0
0 0 0 0 1 1 1 1 1 1 1 1 1 1 1 1 1 1 1 1 1 0 0 0 0 0 0 0 0 0 0 0 0 0 0 0 0 0 0 0 0 0 0
0 0 0 0 0 0 0 0 0 0 1 1 1 1 1 1 1 1 1 1 1 1 0 0 0 0 0 0 0 0 0 0 0 0 0 0 0 0 0 0 0 0 0
0 0 0 0 0 0 1 1 0 0 0 0 1 1 1 1 1 1 1 1 1 1 1 0 0 0 0 0 0 0 0 0 0 0 0 0 0 0 0 0 0 0 0
0 0 0 0 1 1 1 1 0 0 0 0 0 0 1 1 1 1 1 1 1 1 1 1 1 1 0 0 0 0 0 0 0 0 0 0 0 0 0 0 0 0 0
0 0 0 0 1 1 1 1 0 0 0 0 0 0 0 0 0 1 1 1 1 0 0 0 1 1 0 0 0 0 0 0 0 0 0 0 0 0 0 0 0 0 0
0 0 0 0 1 1 1 1 1 1 0 0 0 0 0 0 0 0 1 0 0 0 0 0 0 0 0 0 0 0 0 0 0 0 0 0 0 0 0 0 0 0 0
0 0 0 0 1 1 1 1 1 1 1 0 0 0 0 0 0 0 0 0 0 0 0 0 0 0 0 0 0 0 0 0 0 0 0 0 0 0 0 0 0 0 0
0 0 0 0 0 1 1 1 1 1 1 0 0 0 0 0 0 0 0 0 0 0 0 0 0 0 0 0 0 0 0 0 0 0 0 0 0 0 0 0 0 0 0
0 0 0 0 0 0 0 1 1 1 1 1 1 1 0 0 0 0 0 0 0 0 0 0 0 0 0 0 0 0 0 0 0 0 0 0 0 0 0 0 0 0 0
0 0 0 0 0 0 0 0 1 1 1 1 1 1 1 0 0 0 0 0 0 0 0 0 0 0 0 0 0 0 0 0 0 0 0 0 0 0 0 0 0 0 0
0 0 0 0 0 0 0 0 0 1 1 1 1 1 1 0 0 0 0 0 0 0 0 0 0 0 0 0 0 0 0 0 0 0 0 0 0 0 0 0 0 0 0
Wind_Speed
6 6 7 8 8 8 9 9 8 8 6 5 5 4 4 3 2 2 2 2 1 2 2 2 2 2 2 2 2 2 3 3 2 2 2 2 1 0 0 1 1 0 1
7 6 7 8 9 8 9 9 9 8 8 5 4 3 3 3 2 1 2 2 2 2 2 1 2 2 2 2 2 2 2 2 2 3 3 3 3 2 1 1 1 1 0
7 8 8 8 9 9 9 8 9 9 8 7 5 4 3 3 3 3 2 2 2 2 1 1 1 1 2 2 2 2 3 3 2 3 3 2 1 1 2 1 1 1 1
7 7 8 8 9 9 8 8 8 8 8 8 7 7 5 4 3 2 2 3 3 2 2 1 1 1 1 1 2 2 2 3 3 2 2 3 3 3 2 3 2 1 1
7 7 8 8 8 8 8 8 8 8 8 7 7 7 5 4 3 3 3 3 2 2 2 2 2 2 1 1 1 1 2 3 3 3 2 2 2 4 4 2 2 2 2
6 7 7 7 7 7 7 8 8 8 8 8 8 7 5 4 4 4 3 3 2 2 2 2 2 2 2 2 2 2 2 2 3 3 3 3 2 3 3 3 3 2 1
5 7 7 8 7 8 7 7 8 8 8 8 7 7 6 6 5 4 4 3 2 2 2 2 2 2 2 2 2 2 2 3 3 3 3 3 3 3 3 4 3 3 2
5 6 7 7 7 7 7 7 8 8 8 8 7 6 5 4 3 3 3 3 2 2 2 3 3 2 2 2 3 3 3 3 3 4 3 3 3 3 3 4 4 4 3
4 5 6 7 7 7 7 7 7 8 8 8 7 6 5 4 3 3 3 2 2 2 2 3 3 3 3 3 3 2 3 3 3 4 4 4 3 3 3 4 4 4 4
3 4 5 6 6 6 7 7 7 7 7 7 6 4 5 4 3 3 3 2 2 2 3 3 3 3 3 4 3 3 2 3 3 3 3 4 3 3 3 4 4 4 5
3 3 5 6 6 6 6 6 7 7 7 6 5 4 4 4 4 4 3 3 3 3 4 4 4 4 4 4 4 4 3 4 3 4 4 4 4 4 4 3 3 3 3
3 4 5 6 6 6 6 6 6 6 7 6 6 5 5 4 4 4 4 3 4 4 4 4 5 5 5 4 5 5 4 5 5 4 4 5 4 4 4 3 4 3 3
2 3 4 5 5 4 5 5 5 5 6 6 5 5 4 4 4 4 4 4 4 4 4 5 5 5 5 4 5 5 5 5 5 5 5 5 5 5 4 4 4 3 3
2 2 2 4 4 4 4 4 4 5 5 5 5 5 4 4 4 4 4 4 4 5 5 5 6 5 5 5 5 5 5 5 5 5 5 5 5 5 5 5 5 4 4
1 1 1 2 4 4 4 4 3 4 4 5 5 5 4 4 4 4 4 4 4 5 5 5 5 6 5 4 5 6 6 6 6 5 5 5 5 4 4 4 4 4 4
0 0 0 2 3 4 4 4 3 4 4 4 4 4 4 4 4 4 4 4 5 5 5 5 5 6 5 1 3 6 6 6 6 6 5 5 5 4 5 5 5 5 5
1 1 1 1 2 3 3 4 4 3 4 4 3 4 4 3 3 4 4 4 4 4 5 5 5 5 3 2 4 6 6 6 6 6 5 5 4 4 5 5 7 6 6
1 1 1 1 2 2 3 3 4 4 4 3 3 3 3 4 3 3 4 3 4 4 5 5 5 5 4 3 4 5 7 6 6 5 5 5 5 4 4 5 5 5 5
2 2 1 1 2 3 3 3 4 4 4 4 3 3 3 3 3 3 3 3 3 4 5 5 5 5 4 4 4 5 5 5 6 5 5 5 5 2 3 5 5 5 5
1 1 1 1 1 2 3 3 4 3 3 3 3 3 2 2 3 3 3 3 4 4 5 4 4 5 4 3 4 5 5 5 4 4 5 5 4 3 4 6 5 6 5
1 1 1 1 0 1 2 3 3 3 3 3 3 2 2 3 3 3 3 3 3 3 4 4 4 4 4 4 5 5 5 4 4 4 4 2 4 4 5 7 6 5 5
1 0 0 0 0 1 2 2 2 2 2 2 2 2 2 2 2 2 2 3 3 4 4 4 4 3 3 3 4 6 7 6 5 4 4 2 4 4 6 6 4 4 6
2 1 1 0 1 1 2 2 2 2 2 2 2 2 2 2 2 3 3 3 3 4 4 4 3 3 2 2 5 6 7 7 5 3 2 2 5 6 6 7 7 7 6
2 1 1 1 1 1 2 2 2 2 3 3 2 2 2 3 3 3 3 3 3 4 4 3 4 3 2 2 1 3 3 4 4 3 2 5 7 7 5 5 6 6 5
2 1 1 1 2 2 2 2 1 2 2 2 2 3 2 2 2 2 2 3 3 2 4 4 4 4 3 1 2 3 3 3 3 3 4 4 4 4 4 4 4 4 4
2 2 2 2 2 2 2 1 1 2 2 2 2 2 2 2 3 3 3 2 3 3 4 4 5 3 2 2 3 4 4 4 3 4 5 4 5 5 5 5 4 4 4
Wind_Direction
187 176 176 175 170 169 172 172 171 165 168 167 173 173 173 174 168 156 135 164 193 190 228 232 185 230 205 208 205 202 181 193 187 197 196 191 189 205 262 283 305 176 178
178 173 177 175 171 171 175 173 171 168 174 170 173 173 166 171 153 143 136 182 193 204 203 233 227 212 200 193 208 230 227 210 215 249 238 215 187 190 217 218 211 265 236
189 178 175 176 173 173 173 173 173 171 175 165 163 154 157 168 163 171 173 191 198 196 230 195 239 234 223 178 196 224 231 228 221 254 278 273 258 163 160 195 242 239 272
193 183 178 178 177 175 171 172 174 171 171 170 170 169 175 176 178 183 177 182 192 196 186 195 199 217 220 188 214 208 237 240 235 214 248 291 313 285 209 184 182 200 237
185 179 177 175 173 171 169 169 170 171 173 178 174 179 182 180 172 173 171 197 190 202 193 190 192 199 207 197 240 224 248 243 253 252 234 227 235 255 267 245 217 207 213
180 173 167 164 166 165 167 166 167 171 173 178 180 186 183 180 175 183 185 198 187 191 189 191 191 200 198 200 217 221 224 255 268 268 260 250 241 238 245 248 242 239 221
175 173 169 165 168 167 165 167 168 171 174 178 183 185 184 185 187 198 195 207 196 195 193 201 204 207 214 222 223 222 237 233 243 250 254 258 265 274 269 261 259 255 230
174 174 167 167 169 170 165 168 171 172 173 176 180 180 183 192 191 201 214 207 213 205 194 211 212 212 212 230 227 223 223 225 232 243 257 262 263 271 270 270 270 257 239
170 166 161 166 167 168 170 171 172 171 174 175 177 176 181 191 189 189 211 210 213 210 203 211 211 216 214 222 228 229 229 233 235 236 235 251 249 255 264 267 270 275 269
166 165 159 159 161 166 170 170 174 171 171 175 180 172 177 185 196 203 194 215 226 223 218 214 215 218 216 217 225 230 226 237 244 251 253 259 258 261 255 259 260 265 274
167 166 161 157 161 163 164 169 171 171 171 172 171 171 176 188 199 207 210 211 223 221 221 220 220 222 219 217 225 240 233 240 244 249 245 251 263 260 254 250 251 254 259
166 165 157 152 153 160 162 166 168 172 172 171 174 174 179 192 199 204 214 216 223 228 226 227 227 228 226 222 227 237 236 241 246 250 251 250 244 248 259 258 255 256 262
154 148 144 151 155 157 157 162 168 172 173 170 175 174 184 191 200 205 210 216 223 230 230 230 231 232 234 234 237 243 245 243 246 249 251 250 248 249 253 255 255 251 243
126 120 130 152 156 162 161 168 173 170 171 174 177 177 186 196 205 207 210 217 225 230 231 235 235 235 236 237 238 243 249 252 251 250 250 251 250 250 252 250 253 257 255
104 110 135 161 169 170 169 166 166 165 171 179 183 187 188 196 206 210 215 222 229 236 235 240 241 239 236 233 238 241 242 245 248 247 248 250 255 269 271 272 264 254 254
243 311 283 195 180 175 172 164 166 166 171 183 190 187 190 197 206 212 216 225 232 239 240 241 243 243 244 193 240 258 249 245 245 246 248 246 229 229 232 253 271 280 267
321 326 296 232 198 190 180 173 171 169 173 182 187 189 192 200 208 216 220 229 236 240 244 244 245 247 244 192 224 249 256 250 246 245 246 251 245 235 240 229 228 240 255
310 323 297 218 200 190 183 172 169 175 180 184 189 192 195 201 205 216 224 234 239 240 244 246 247 248 234 189 216 243 247 255 250 244 244 247 251 252 259 254 249 245 237
298 307 293 214 193 183 180 174 175 180 188 193 200 201 199 206 210 219 230 237 244 247 248 245 248 249 236 190 208 240 249 245 249 246 240 242 242 233 254 254 255 255 251
278 294 281 198 188 185 191 189 188 188 195 198 212 216 217 218 223 228 236 242 245 248 255 254 253 252 253 188 205 236 250 247 250 251 238 228 232 206 229 246 251 255 258
302 255 213 217 199 194 201 202 196 193 193 199 212 214 224 231 227 226 233 242 250 255 260 259 254 248 248 194 194 223 250 255 254 256 250 218 172 197 224 247 250 254 264
349 316 236 239 216 211 214 209 201 201 201 207 213 214 224 236 227 225 230 235 242 241 244 247 253 244 222 209 193 211 240 269 259 258 258 225 185 217 231 241 247 248 255
349 341 310 288 264 235 232 224 216 205 201 210 219 226 233 232 226 226 224 227 230 245 246 244 252 253 241 185 186 209 232 249 256 268 285 252 220 226 230 219 220 229 240
349 333 300 278 287 281 255 230 218 203 201 209 225 237 239 238 225 238 237 242 240 250 257 259 262 263 254 252 232 227 229 231 244 259 232 215 224 238 244 222 218 228 240
331 300 286 286 284 284 272 244 205 202 206 207 224 240 245 252 250 250 264 264 271 281 273 275 272 269 263 298 317 276 269 273 279 279 257 242 232 231 232 231 230 230 226
335 319 311 302 306 305 288 242 204 201 207 225 241 255 253 250 252 250 247 235 258 247 246 265 279 286 297 277 271 265 263 259 249 253 249 245 240 240 239 239 235 232 235